Tracking 23645 objects as of 21-Sep-2021
HD Live streaming from Space Station
objects crossing your sky now

STARLINK-1854

Track STARLINK-1854 now!
10-day predictions
STARLINK-1854 is classified as:


NORAD ID: 47141
Int'l Code: 2020-088V
Perigee: 553.5 km
Apogee: 555.2 km
Inclination: 53.1 °
Period: 95.6 minutes
Semi major axis: 6925 km
RCS: Unknown
Launch date: November 25, 2020
Source: United States (US)
Launch site: AIR FORCE EASTERN TEST RANGE (AFETR)
aabbcc
Your satellite tracking list
Your tracking list is empty




NASA's NSSDC Master Catalog

Two Line Element Set (TLE):
1 47141U 20088V   21264.55730042 -.00000988  00000-0 -47445-4 0  9991
2 47141  53.0558  49.5018 0001264 119.8017 240.3098 15.06393936 46283
Source of the keplerian elements: AFSPC